Home > Weather > Caracas > Past weeks

Flag for Venezuela Weather for the Past 2 Weeks in Caracas, Venezuela

Now
81 °F

Warm.


Feels Like: 86 °F
Forecast: 66 / 78 °F
Wind: 3 mph from Northeast

Location: Caracas / Maiquetia Aerop. Intl. Simon Bolivar

Current Time: Feb 6, 2016 at 12:03:28 PM

Latest Report: Feb 6, 2016 at 11:30 AM


Visibility: N/A

Pressure: 30.07 "Hg (27.22 "Hg at 875m altitude)

Humidity: 84%

Dew point: 75 °F

Location of CaracasLocation

Historic Weather in Caracas — Graph

°F

Caracas Temperature Yesterday

Maximum temperature yesterday: 84 °F (at 2:30 PM)
Minimum temperature yesterday: 73 °F (at 12:30 AM)
Average temperature yesterday: 77 °F

High & Low Weather Summary for the Past Weeks

 TemperatureHumidityPressure
High88 °F (Jan 22, 4:30 PM)94% (Jan 23, 10:30 PM)30.12 "Hg (Jan 23, 10:30 PM)
Low72 °F (Jan 28, 7:30 AM)45% (Jan 31, 11:30 AM)29.92 "Hg (Jan 22, 3:30 PM)
Average78 °F78%30.00 "Hg
* Reported Jan 22 10:30 AM — Feb 6 10:30 AM, Caracas, Weather by CustomWeather, © 2016

Note: Actual official high and low records may vary slightly from our data, if they occured in-between our weather recording intervals... More about our weather records

Advertising

Caracas Weather History for the Previous 24 Hours

 ConditionsComfort  
Time TempWeatherWind HumidityBarometerVisibility
10:30 AM
Sat, Feb 6
81 °FWarm.3 mph84%30.07 "HgN/A
9:30 AM81 °FPassing clouds.2 mph84%30.04 "HgN/A
8:30 AM79 °FPassing clouds.2 mph89%30.04 "HgN/A
7:30 AM73 °FPassing clouds.No wind83%30.04 "HgN/A
6:30 AM72 °FPassing clouds.No wind83%30.01 "HgN/A
5:30 AM72 °FPassing clouds.No wind83%30.01 "HgN/A
4:30 AM72 °FPassing clouds.No wind88%30.01 "HgN/A
3:30 AM72 °FPassing clouds.No wind88%30.01 "HgN/A
2:30 AM73 °FPassing clouds.No wind89%30.01 "HgN/A
1:30 AM73 °FPassing clouds.No wind89%30.04 "HgN/A
12:30 AM73 °FPassing clouds.No wind89%30.04 "HgN/A
11:30 PM
Fri, Feb 5
75 °FPassing clouds.No wind83%30.04 "HgN/A
10:30 PM75 °FPassing clouds.No wind83%30.04 "HgN/A
9:30 PM75 °FPassing clouds.1 mph83%30.01 "HgN/A
8:30 PM75 °FPassing clouds.3 mph83%30.01 "HgN/A
7:30 PM75 °FPassing clouds.3 mph83%30.01 "HgN/A
6:30 PM77 °FPassing clouds.1 mph74%29.98 "HgN/A
5:30 PM79 °FPassing clouds.2 mph70%29.98 "HgN/A
4:30 PM79 °FPassing clouds.2 mph70%29.98 "HgN/A
3:30 PM84 °FPassing clouds.5 mph66%29.98 "HgN/A
2:30 PM84 °FPassing clouds.6 mph66%30.01 "HgN/A
1:30 PM82 °FPassing clouds.6 mph70%30.01 "HgN/A
12:30 PM82 °FPassing clouds.3 mph62%30.04 "HgN/A
Weather by CustomWeather, © 2016

See weather overviewHow to use our weather pages